Погода в Ванкувере

Канада     49°17′04″N   123°07′00″W
темп.,
°C
ветер,
м/с
пор.,
м/с
влажн.,
%
обл.,
%
осадки,
мм/ч
давл.,
гПа
погр.,
м
22 октября, пт
пт2223:00+11в3995100 9.5 1008393
02:00+11юв2994100 1.8 1007597
05:00+11юв1596100 6.0 1007275
08:00+11всв2595100 1.6 1007249
11:00+10всв1397100 7.4 1007209
14:00+11вюв2794100 3.9 1006610
17:00+10вюв2398100 4.6 1006248
20:00+9в2598100 0.4 1006208
23 октября, сб
сб2323:00+9в2494100 0.4 1006200
02:00+9всв2495100 0.9 1006230
05:00+9св2487100 2.2 1005107
08:00+8всв2490100 0.4 1005133
11:00+9в2393100 2.7 1005216
14:00+9св2491100 2.2 1004285
17:00+9вюв2391100 2.7 1005142
20:00+9всв239098 0.1 1004124
24 октября, вс
вс2423:00+9всв239196 0.4 1003107
02:00+8св3587100 0.1 100099
05:00+7св358488 0.1 996111
08:00+7св3581100 0.0 989114
11:00+9всв4975100 0.0 986288
14:00+9всв3684100 2.0 985274
17:00+9св2495100 7.8 986202
20:00+9всв3793100 3.9 989335
25 октября, пн
пн2523:00+8св2486100 4.3 99097
02:00+9св2484100 0.2 99185
05:00+8св368594 0.3 991139
08:00+7ссв378399 0.0 990145
11:00+9всв2589100 3.6 991478
14:00+8св3885100 1.3 992485
17:00+8св4885100 1.8 991275
20:00+7св4988100 1.1 991397
26 октября, вт
вт2623:00+7св3891100 6.0 992348
02:00+7св3792100 4.9 993331
05:00+7всв3795100 11.0 993381
08:00+10юз61185100 8.4 9961041
11:00+8всв129399 8.9 1001102
14:00+9вюв2596100 3.6 1001295
17:00+10ююв3788100 5.5 1002432
20:00+9ююв31095100 3.4 1003726